This is the latest recevied weather packets stored in our database for station/object K4KMJ. If no packets are shown the sender has not sent any weather packets the latest 10 day(s).
| Time | Temp. | Humidity | Pressure | Rain* | Wind** | Luminosity | Snow |
|---|---|---|---|---|---|---|---|
| 1777334680 | 22.78° C | 85% | 1020.2 hPa | 0 mm | - | 1 W/m² | - |
| 1777334378 | 22.78° C | 85% | 1020 hPa | 0 mm | - | 2 W/m² | - |
| 1777334073 | 22.78° C | 84% | 1019.8 hPa | 0 mm | - | 5 W/m² | - |
| 1777333768 | 22.78° C | 84% | 1020 hPa | 0 mm | - | 7 W/m² | - |
| 1777333465 | 23.33° C | 83% | 1019.8 hPa | 0 mm | - | 10 W/m² | - |
| 1777333162 | 23.33° C | 83% | 1020 hPa | 0 mm | - | 14 W/m² | - |
| 1777332861 | 23.33° C | 82% | 1020 hPa | 0 mm | - | 19 W/m² | - |
| 1777332557 | 23.89° C | 82% | 1019.8 hPa | 0 mm | - | 33 W/m² | - |
| 1777332255 | 23.89° C | 81% | 1019.7 hPa | 0 mm | - | 38 W/m² | - |
| 1777331951 | 23.89° C | 81% | 1019.6 hPa | 0 mm | - | 36 W/m² | - |
| 1777331649 | 23.89° C | 81% | 1019.6 hPa | 0 mm | - | 51 W/m² | - |
| 1777331345 | 23.89° C | 81% | 1019.8 hPa | 0 mm | - | 52 W/m² | - |
| 1777331043 | 23.89° C | 80% | 1019.5 hPa | 0 mm | - | 34 W/m² | - |
| 1777330740 | 24.44° C | 81% | 1019.5 hPa | 0 mm | - | 46 W/m² | - |
| 1777330437 | 24.44° C | 81% | 1019.6 hPa | 0 mm | - | 99 W/m² | - |
| 1777330135 | 24.44° C | 81% | 1019.3 hPa | 0 mm | - | 119 W/m² | - |
| 1777329833 | 24.44° C | 81% | 1019.5 hPa | 0 mm | - | 127 W/m² | - |
| 1777329531 | 24.44° C | 82% | 1019.5 hPa | 0 mm | - | 138 W/m² | - |
| 1777329228 | 23.89° C | 82% | 1019.6 hPa | 0 mm | - | 165 W/m² | - |
| 1777328926 | 23.89° C | 81% | 1019.4 hPa | 0 mm | - | 80 W/m² | - |
| 1777328624 | 23.89° C | 81% | 1019.7 hPa | 0 mm | - | 53 W/m² | - |
| 1777328321 | 23.89° C | 81% | 1019.5 hPa | 0 mm | - | 40 W/m² | - |
| 1777328019 | 24.44° C | 80% | 1019.3 hPa | 0 mm | - | 74 W/m² | - |
| 1777327717 | 24.44° C | 80% | 1019.4 hPa | 0 mm | - | 99 W/m² | - |
| 1777327414 | 24.44° C | 78% | 1019.2 hPa | 0 mm | - | 97 W/m² | - |
* Rain latest hour (hover to see other rain measurements)
** Current wind speed in m/s (hover to see current wind gust speed)